START_TIME,STEP,MOV.,AL01,t_acc.,AL02,t_acc.,E37,t_acc.,H21,t_acc.
1989-08-26T18:00:34.930 ,0,0,0.,24.0,0.,24.0,0.,24.0,0.,24.0
1989-08-26T18:00:58.930 ,0,1,0.,24.0,0.,24.0,0.,24.0,0.,24.0
1989-08-26T18:01:22.930 ,0,0,0.,24.0,0.,24.0,0.,24.0,0.,24.0
1989-08-26T18:01:46.930 ,1,1,0.,24.0,0.,24.0,0.,24.0,0.,24.0
1989-08-26T18:02:10.930 ,1,0,0.,24.0,0.,24.0,0.,24.0,0.,24.0
1989-08-26T18:02:34.930 ,2,1,0.,24.0,0.,24.0,0.,24.0,0.,24.0
1989-08-26T18:02:58.930 ,2,0,0.,24.0,0.,24.0,0.,24.0,0.,24.0
1989-08-26T18:03:22.930 ,3,1,0.,24.0,0.,24.0,0.,24.0,0.,24.0
1989-08-26T18:03:46.930 ,3,0,0.,24.0,0.,24.0,0.,24.0,0.,24.0
1989-08-26T18:04:10.930 ,4,1,0.,24.0,0.,24.0,0.,24.0,0.,24.0
1989-08-26T18:04:34.930 ,4,0,0.,24.0,0.,24.0,0.,24.0,0.,24.0
1989-08-26T18:04:58.930 ,5,1,0.,24.0,0.,24.0,0.,24.0,0.,24.0
1989-08-26T18:05:22.930 ,5,0,0.,24.0,0.,24.0,0.,24.0,0.,24.0
1989-08-26T18:05:46.930 ,6,1,0.,24.0,0.,24.0,0.,24.0,0.,24.0
1989-08-26T18:06:10.930 ,6,0,0.,24.0,0.,24.0,0.,24.0,0.,24.0
1989-08-26T18:06:34.930 ,7,1,8.,24.0,0.,24.0,0.,24.0,0.,24.0
1989-08-26T18:06:58.930 ,7,0,29.,24.0,0.,24.0,0.,24.0,0.,24.0
1989-08-26T18:07:22.930 ,7,1,27.,24.0,0.,24.0,0.,24.0,0.,24.0
1989-08-26T18:07:46.930 ,7,0,28.,24.0,0.,24.0,0.,24.0,0.,24.0
1989-08-26T18:08:10.930 ,6,1,23.,24.0,0.,24.0,0.,24.0,0.,24.0
1989-08-26T18:08:34.930 ,6,0,1.,24.0,0.,24.0,0.,24.0,0.,24.0
1989-08-26T18:08:58.930 ,5,1,0.,24.0,0.,24.0,0.,24.0,0.,24.0
1989-08-26T18:09:22.930 ,5,0,0.,24.0,0.,24.0,0.,24.0,0.,24.0
1989-08-26T18:09:46.930 ,4,1,0.,24.0,0.,24.0,0.,24.0,0.,24.0
1989-08-26T18:10:10.930 ,4,0,0.,24.0,0.,24.0,0.,24.0,0.,24.0
1989-08-26T18:10:34.930 ,3,1,0.,24.0,0.,24.0,0.,24.0,0.,24.0
1989-08-26T18:10:58.930 ,3,0,0.,24.0,0.,24.0,0.,24.0,0.,24.0
1989-08-26T18:11:22.930 ,2,1,0.,24.0,0.,24.0,0.,24.0,0.,24.0
1989-08-26T18:11:46.930 ,2,0,0.,24.0,0.,24.0,0.,24.0,0.,24.0
1989-08-26T18:12:10.930 ,1,1,0.,24.0,0.,24.0,0.,24.0,0.,24.0
1989-08-26T18:12:34.930 ,1,0,0.,24.0,0.,24.0,0.,24.0,0.,24.0
1989-08-26T18:12:58.930 ,0,1,0.,24.0,0.,24.0,0.,24.0,0.,24.0
1989-08-26T18:13:22.930 ,0,0,0.,24.0,0.,24.0,0.,24.0,0.,24.0
1989-08-26T18:13:46.930 ,0,1,0.,24.0,0.,24.0,0.,24.0,0.,24.0
1989-08-26T18:14:10.930 ,0,0,0.,24.0,0.,24.0,0.,24.0,0.,24.0
1989-08-26T18:14:34.930 ,1,1,0.,24.0,0.,24.0,0.,24.0,0.,24.0
1989-08-26T18:14:58.930 ,1,0,0.,24.0,0.,24.0,0.,24.0,0.,24.0
1989-08-26T18:15:22.930 ,2,1,0.,24.0,0.,24.0,0.,24.0,0.,24.0
1989-08-26T18:15:46.930 ,2,0,0.,24.0,0.,24.0,0.,24.0,0.,24.0
1989-08-26T18:16:10.930 ,3,1,0.,24.0,0.,24.0,0.,24.0,0.,24.0
1989-08-26T18:16:34.930 ,3,0,0.,24.0,0.,24.0,0.,24.0,0.,24.0
1989-08-26T18:16:58.930 ,4,1,0.,24.0,0.,24.0,0.,24.0,0.,24.0
1989-08-26T18:17:22.930 ,4,0,0.,24.0,0.,24.0,0.,24.0,0.,24.0
1989-08-26T18:17:46.930 ,5,1,0.,24.0,0.,24.0,0.,24.0,0.,24.0
1989-08-26T18:18:10.930 ,5,0,0.,24.0,0.,24.0,0.,24.0,0.,24.0
1989-08-26T18:18:34.930 ,6,1,0.,24.0,0.,24.0,0.,24.0,0.,24.0
1989-08-26T18:18:58.930 ,6,0,0.,24.0,0.,24.0,0.,24.0,0.,24.0
1989-08-26T18:19:22.930 ,7,1,7.,24.0,0.,24.0,0.,24.0,0.,24.0
1989-08-26T18:19:46.930 ,7,0,23.,24.0,1.,24.0,0.,24.0,0.,24.0
1989-08-26T18:20:10.930 ,7,1,24.,24.0,0.,24.0,0.,24.0,0.,24.0
1989-08-26T18:20:34.930 ,7,0,30.,24.0,0.,24.0,0.,24.0,0.,24.0
1989-08-26T18:20:58.930 ,6,1,20.,24.0,0.,24.0,0.,24.0,0.,24.0
1989-08-26T18:21:22.930 ,6,0,0.,24.0,0.,24.0,0.,24.0,0.,24.0
1989-08-26T18:21:46.930 ,5,1,0.,24.0,0.,24.0,0.,24.0,0.,24.0
1989-08-26T18:22:10.930 ,5,0,0.,24.0,1.,24.0,0.,24.0,0.,24.0
1989-08-26T18:22:34.930 ,4,1,0.,24.0,0.,24.0,0.,24.0,0.,24.0
1989-08-26T18:22:58.930 ,4,0,0.,24.0,0.,24.0,0.,24.0,0.,24.0
1989-08-26T18:23:22.930 ,3,1,0.,24.0,0.,24.0,0.,24.0,0.,24.0
1989-08-26T18:23:46.930 ,0,0,0.,24.0,0.,24.0,0.,24.0,0.,24.0
1989-08-26T18:24:58.330 ,0,0,,0,,0,,0,,0
1989-08-26T18:24:58.930 ,0,0,0.,24.0,0.,24.0,0.,24.0,0.,24.0
1989-08-26T18:25:22.930 ,0,0,0.,24.0,0.,24.0,0.,24.0,0.,24.0
1989-08-26T18:25:46.930 ,0,1,0.,24.0,0.,24.0,0.,24.0,0.,24.0
1989-08-26T18:26:10.930 ,0,0,0.,24.0,0.,24.0,0.,24.0,0.,24.0
1989-08-26T18:26:34.930 ,0,1,0.,24.0,0.,24.0,0.,24.0,0.,24.0
1989-08-26T18:26:58.930 ,0,0,0.,24.0,0.,24.0,0.,24.0,0.,24.0
1989-08-26T18:27:22.930 ,1,1,0.,24.0,0.,24.0,0.,24.0,0.,24.0
1989-08-26T18:27:46.930 ,1,0,0.,24.0,0.,24.0,0.,24.0,0.,24.0
1989-08-26T18:28:10.930 ,2,1,0.,24.0,0.,24.0,0.,24.0,0.,24.0
1989-08-26T18:28:34.930 ,2,0,0.,24.0,0.,24.0,0.,24.0,0.,24.0
1989-08-26T18:28:58.930 ,3,1,0.,24.0,0.,24.0,0.,24.0,0.,24.0
1989-08-26T18:29:22.930 ,3,0,0.,24.0,0.,24.0,0.,24.0,0.,24.0
1989-08-26T18:29:46.930 ,4,1,0.,24.0,0.,24.0,0.,24.0,0.,24.0
1989-08-26T18:30:10.930 ,4,0,0.,24.0,0.,24.0,0.,24.0,0.,24.0
1989-08-26T18:30:34.930 ,5,1,0.,24.0,0.,24.0,0.,24.0,0.,24.0
1989-08-26T18:30:58.930 ,5,0,0.,24.0,1.,24.0,0.,24.0,0.,24.0
1989-08-26T18:31:22.930 ,6,1,0.,24.0,0.,24.0,0.,24.0,0.,24.0
1989-08-26T18:31:46.930 ,6,0,0.,24.0,0.,24.0,0.,24.0,0.,24.0
1989-08-26T18:32:10.930 ,7,1,7.,24.0,0.,24.0,0.,24.0,0.,24.0
1989-08-26T18:32:34.930 ,7,0,32.,24.0,0.,24.0,0.,24.0,0.,24.0
1989-08-26T18:32:58.930 ,7,1,27.,24.0,0.,24.0,0.,24.0,0.,24.0
1989-08-26T18:33:22.930 ,7,0,27.,24.0,0.,24.0,0.,24.0,0.,24.0
1989-08-26T18:33:46.930 ,6,1,13.,24.0,0.,24.0,0.,24.0,0.,24.0
1989-08-26T18:34:10.930 ,6,0,0.,24.0,0.,24.0,0.,24.0,0.,24.0
1989-08-26T18:34:34.930 ,5,1,0.,24.0,0.,24.0,0.,24.0,0.,24.0
1989-08-26T18:34:58.930 ,5,0,0.,24.0,0.,24.0,0.,24.0,0.,24.0
1989-08-26T18:35:22.930 ,4,1,0.,24.0,0.,24.0,0.,24.0,0.,24.0
1989-08-26T18:35:46.930 ,4,0,0.,24.0,0.,24.0,0.,24.0,0.,24.0
1989-08-26T18:36:10.930 ,3,1,0.,24.0,0.,24.0,0.,24.0,0.,24.0
1989-08-26T18:36:34.930 ,3,0,0.,24.0,0.,24.0,0.,24.0,0.,24.0
1989-08-26T18:36:58.930 ,2,1,0.,24.0,0.,24.0,0.,24.0,0.,24.0
1989-08-26T18:37:22.930 ,2,0,0.,24.0,0.,24.0,0.,24.0,0.,24.0
1989-08-26T18:37:46.930 ,1,1,0.,24.0,0.,24.0,0.,24.0,0.,24.0
1989-08-26T18:38:10.930 ,1,0,0.,24.0,0.,24.0,0.,24.0,0.,24.0
1989-08-26T18:38:34.930 ,0,1,0.,24.0,0.,24.0,0.,24.0,0.,24.0
1989-08-26T18:38:58.930 ,0,0,0.,24.0,0.,24.0,0.,24.0,0.,24.0
1989-08-26T18:39:22.930 ,0,1,0.,24.0,0.,24.0,0.,24.0,0.,24.0
1989-08-26T18:39:46.930 ,0,0,0.,24.0,0.,24.0,0.,24.0,0.,24.0
1989-08-26T18:40:10.930 ,1,1,0.,24.0,0.,24.0,0.,24.0,0.,24.0
1989-08-26T18:40:34.930 ,1,0,0.,24.0,0.,24.0,0.,24.0,0.,24.0
1989-08-26T18:40:58.930 ,2,1,0.,24.0,0.,24.0,0.,24.0,0.,24.0
1989-08-26T18:41:22.930 ,2,0,0.,24.0,0.,24.0,0.,24.0,0.,24.0
1989-08-26T18:41:46.930 ,3,1,0.,24.0,0.,24.0,0.,24.0,0.,24.0
1989-08-26T18:42:10.930 ,3,0,0.,24.0,0.,24.0,0.,24.0,0.,24.0
1989-08-26T18:42:34.930 ,4,1,0.,24.0,0.,24.0,0.,24.0,0.,24.0
1989-08-26T18:42:58.930 ,4,0,0.,24.0,0.,24.0,0.,24.0,0.,24.0
1989-08-26T18:43:22.930 ,5,1,0.,24.0,1.,24.0,0.,24.0,0.,24.0
1989-08-26T18:43:46.930 ,5,0,0.,24.0,0.,24.0,0.,24.0,0.,24.0
1989-08-26T18:44:10.930 ,6,1,0.,24.0,0.,24.0,0.,24.0,0.,24.0
1989-08-26T18:44:34.930 ,6,0,0.,24.0,0.,24.0,0.,24.0,0.,24.0
1989-08-26T18:44:58.930 ,7,1,8.,24.0,0.,24.0,0.,24.0,0.,24.0
1989-08-26T18:45:22.930 ,7,0,37.,24.0,0.,24.0,0.,24.0,0.,24.0
1989-08-26T18:45:46.930 ,7,1,41.,24.0,0.,24.0,0.,24.0,0.,24.0
1989-08-26T18:46:10.930 ,7,0,35.,24.0,0.,24.0,0.,24.0,0.,24.0
1989-08-26T18:46:34.930 ,6,1,19.,24.0,1.,24.0,0.,24.0,0.,24.0
1989-08-26T18:46:58.930 ,6,0,0.,24.0,0.,24.0,0.,24.0,0.,24.0
1989-08-26T18:47:22.930 ,5,1,0.,24.0,0.,24.0,0.,24.0,0.,24.0
1989-08-26T18:47:46.930 ,5,0,0.,24.0,0.,24.0,0.,24.0,0.,24.0
1989-08-26T18:48:10.930 ,4,1,0.,24.0,0.,24.0,0.,24.0,0.,24.0
1989-08-26T18:48:34.930 ,4,0,0.,24.0,0.,24.0,0.,24.0,0.,24.0
1989-08-26T18:48:58.930 ,3,1,0.,24.0,0.,24.0,0.,24.0,0.,24.0
1989-08-26T18:49:22.930 ,3,0,0.,24.0,0.,24.0,0.,24.0,0.,24.0
1989-08-26T18:49:46.930 ,2,1,0.,24.0,0.,24.0,0.,24.0,0.,24.0
1989-08-26T18:50:10.930 ,2,0,0.,24.0,0.,24.0,0.,24.0,0.,24.0
1989-08-26T18:50:34.930 ,1,1,0.,24.0,0.,24.0,0.,24.0,0.,24.0
1989-08-26T18:50:58.930 ,1,0,0.,24.0,0.,24.0,0.,24.0,0.,24.0
1989-08-26T18:51:22.930 ,0,1,0.,24.0,0.,24.0,0.,24.0,0.,24.0
1989-08-26T18:51:46.930 ,0,0,0.,24.0,0.,24.0,0.,24.0,0.,24.0
1989-08-26T18:52:10.930 ,0,1,0.,24.0,0.,24.0,0.,24.0,0.,24.0
1989-08-26T18:52:34.930 ,0,0,0.,24.0,0.,24.0,0.,24.0,0.,24.0
1989-08-26T18:52:58.930 ,1,1,0.,24.0,0.,24.0,0.,24.0,0.,24.0
1989-08-26T18:53:22.930 ,1,0,0.,24.0,0.,24.0,0.,24.0,0.,24.0
1989-08-26T18:53:46.930 ,2,1,0.,24.0,0.,24.0,0.,24.0,0.,24.0
1989-08-26T18:54:10.930 ,2,0,0.,24.0,0.,24.0,0.,24.0,0.,24.0
1989-08-26T18:54:34.930 ,3,1,0.,24.0,0.,24.0,0.,24.0,0.,24.0
1989-08-26T18:54:58.930 ,3,0,0.,24.0,0.,24.0,0.,24.0,0.,24.0
1989-08-26T18:55:22.930 ,4,1,0.,24.0,0.,24.0,0.,24.0,0.,24.0
1989-08-26T18:55:46.930 ,4,0,0.,24.0,0.,24.0,0.,24.0,0.,24.0
1989-08-26T18:56:10.930 ,5,1,0.,24.0,0.,24.0,0.,24.0,0.,24.0
1989-08-26T18:56:34.930 ,5,0,0.,24.0,0.,24.0,0.,24.0,0.,24.0
1989-08-26T18:56:58.930 ,6,1,0.,24.0,0.,24.0,0.,24.0,0.,24.0
1989-08-26T18:57:22.930 ,6,0,0.,24.0,0.,24.0,0.,24.0,0.,24.0
1989-08-26T18:57:46.930 ,7,1,8.,24.0,0.,24.0,0.,24.0,0.,24.0
1989-08-26T18:58:10.930 ,7,0,17.,24.0,0.,24.0,0.,24.0,0.,24.0
1989-08-26T18:58:34.930 ,7,1,32.,24.0,0.,24.0,0.,24.0,0.,24.0
1989-08-26T18:58:58.930 ,7,0,26.,24.0,0.,24.0,0.,24.0,0.,24.0
1989-08-26T18:59:22.930 ,6,1,17.,24.0,0.,24.0,0.,24.0,0.,24.0
1989-08-26T18:59:46.930 ,6,0,0.,24.0,0.,24.0,0.,24.0,0.,24.0
1989-08-26T19:00:10.930 ,5,1,0.,24.0,0.,24.0,0.,24.0,0.,24.0
1989-08-26T19:00:34.930 ,5,0,0.,24.0,0.,24.0,0.,24.0,0.,24.0
1989-08-26T19:00:58.930 ,4,1,0.,24.0,0.,24.0,0.,24.0,0.,24.0
1989-08-26T19:01:22.930 ,4,0,0.,24.0,1.,24.0,0.,24.0,0.,24.0
1989-08-26T19:01:46.930 ,3,1,0.,24.0,0.,24.0,0.,24.0,0.,24.0
1989-08-26T19:02:10.930 ,3,0,0.,24.0,0.,24.0,0.,24.0,0.,24.0
1989-08-26T19:02:34.930 ,2,1,0.,24.0,0.,24.0,0.,24.0,0.,24.0
1989-08-26T19:02:58.930 ,2,0,0.,24.0,0.,24.0,0.,24.0,0.,24.0
1989-08-26T19:03:22.930 ,1,1,0.,24.0,0.,24.0,0.,24.0,0.,24.0
1989-08-26T19:03:46.930 ,1,0,0.,24.0,0.,24.0,0.,24.0,0.,24.0
1989-08-26T19:04:10.930 ,0,1,0.,24.0,0.,24.0,0.,24.0,0.,24.0
1989-08-26T19:04:34.930 ,0,0,0.,24.0,0.,24.0,0.,24.0,0.,24.0
1989-08-26T19:04:58.930 ,0,1,0.,24.0,0.,24.0,0.,24.0,0.,24.0
1989-08-26T19:05:22.930 ,0,0,0.,24.0,0.,24.0,0.,24.0,0.,24.0
1989-08-26T19:05:46.930 ,1,1,0.,24.0,0.,24.0,0.,24.0,0.,24.0
1989-08-26T19:06:10.930 ,1,0,0.,24.0,0.,24.0,0.,24.0,0.,24.0
1989-08-26T19:06:34.930 ,2,1,0.,24.0,0.,24.0,0.,24.0,0.,24.0
1989-08-26T19:06:58.930 ,2,0,0.,24.0,0.,24.0,0.,24.0,0.,24.0
1989-08-26T19:07:22.930 ,3,1,0.,24.0,0.,24.0,0.,24.0,0.,24.0
1989-08-26T19:07:46.930 ,3,0,0.,24.0,1.,24.0,0.,24.0,0.,24.0
1989-08-26T19:08:10.930 ,4,1,0.,24.0,1.,24.0,0.,24.0,0.,24.0
1989-08-26T19:08:34.930 ,4,0,0.,24.0,0.,24.0,0.,24.0,0.,24.0
1989-08-26T19:08:58.930 ,5,1,0.,24.0,0.,24.0,0.,24.0,0.,24.0
1989-08-26T19:09:22.930 ,5,0,0.,24.0,0.,24.0,0.,24.0,0.,24.0
1989-08-26T19:09:46.930 ,6,1,1.,24.0,0.,24.0,0.,24.0,0.,24.0
1989-08-26T19:10:10.930 ,6,0,0.,24.0,0.,24.0,0.,24.0,0.,24.0
1989-08-26T19:10:34.930 ,7,1,5.,24.0,0.,24.0,0.,24.0,0.,24.0
1989-08-26T19:10:58.930 ,7,0,16.,24.0,0.,24.0,0.,24.0,0.,24.0
1989-08-26T19:11:22.930 ,7,1,30.,24.0,0.,24.0,0.,24.0,0.,24.0
1989-08-26T19:11:46.930 ,7,0,26.,24.0,0.,24.0,0.,24.0,0.,24.0
1989-08-26T19:12:10.930 ,6,1,30.,24.0,0.,24.0,0.,24.0,0.,24.0
1989-08-26T19:12:34.930 ,6,0,0.,24.0,0.,24.0,0.,24.0,0.,24.0
1989-08-26T19:12:58.930 ,5,1,0.,24.0,0.,24.0,0.,24.0,0.,24.0
1989-08-26T19:13:22.930 ,5,0,0.,24.0,0.,24.0,0.,24.0,0.,24.0
1989-08-26T19:13:46.930 ,4,1,0.,24.0,0.,24.0,0.,24.0,0.,24.0
1989-08-26T19:14:10.930 ,4,0,0.,24.0,0.,24.0,0.,24.0,0.,24.0
1989-08-26T19:14:34.930 ,3,1,0.,24.0,1.,24.0,0.,24.0,0.,24.0
1989-08-26T19:14:58.930 ,3,0,0.,24.0,0.,24.0,0.,24.0,0.,24.0
1989-08-26T19:15:22.930 ,2,1,0.,24.0,0.,24.0,0.,24.0,0.,24.0
1989-08-26T19:15:46.930 ,2,0,0.,24.0,0.,24.0,0.,24.0,0.,24.0
1989-08-26T19:16:10.930 ,1,1,0.,24.0,0.,24.0,0.,24.0,0.,24.0
1989-08-26T19:16:34.930 ,1,0,0.,24.0,0.,24.0,0.,24.0,0.,24.0
1989-08-26T19:16:58.930 ,0,1,0.,24.0,0.,24.0,0.,24.0,0.,24.0
1989-08-26T19:17:22.930 ,0,0,0.,24.0,0.,24.0,0.,24.0,0.,24.0
1989-08-26T19:17:46.930 ,0,1,0.,24.0,0.,24.0,0.,24.0,0.,24.0
1989-08-26T19:18:10.930 ,0,0,0.,24.0,0.,24.0,0.,24.0,0.,24.0
1989-08-26T19:18:34.930 ,1,1,0.,24.0,0.,24.0,0.,24.0,0.,24.0
1989-08-26T19:18:58.930 ,1,0,0.,24.0,0.,24.0,0.,24.0,0.,24.0
1989-08-26T19:19:22.930 ,2,1,0.,24.0,0.,24.0,0.,24.0,0.,24.0
1989-08-26T19:19:46.930 ,2,0,0.,24.0,0.,24.0,0.,24.0,0.,24.0
1989-08-26T19:20:10.930 ,3,1,0.,24.0,0.,24.0,0.,24.0,0.,24.0
1989-08-26T19:20:34.930 ,3,0,0.,24.0,0.,24.0,0.,24.0,0.,24.0
1989-08-26T19:20:58.930 ,4,1,0.,24.0,0.,24.0,0.,24.0,0.,24.0
1989-08-26T19:21:22.930 ,4,0,0.,24.0,0.,24.0,0.,24.0,0.,24.0
1989-08-26T19:21:46.930 ,5,1,0.,24.0,0.,24.0,0.,24.0,0.,24.0
1989-08-26T19:22:10.930 ,5,0,0.,24.0,0.,24.0,0.,24.0,0.,24.0
1989-08-26T19:22:34.930 ,6,1,0.,24.0,0.,24.0,0.,24.0,0.,24.0
1989-08-26T19:22:58.930 ,6,0,0.,24.0,0.,24.0,0.,24.0,0.,24.0
1989-08-26T19:23:22.930 ,7,1,11.,24.0,0.,24.0,0.,24.0,0.,24.0
1989-08-26T19:23:46.930 ,7,0,44.,24.0,0.,24.0,0.,24.0,0.,24.0
1989-08-26T19:24:10.930 ,7,1,43.,24.0,0.,24.0,0.,24.0,0.,24.0
1989-08-26T19:24:34.930 ,7,0,26.,24.0,0.,24.0,0.,24.0,0.,24.0
1989-08-26T19:24:58.930 ,6,1,24.,24.0,0.,24.0,0.,24.0,0.,24.0
1989-08-26T19:25:22.930 ,6,0,0.,24.0,0.,24.0,0.,24.0,0.,24.0
1989-08-26T19:25:46.930 ,5,1,0.,24.0,0.,24.0,0.,24.0,0.,24.0
1989-08-26T19:26:10.930 ,5,0,0.,24.0,0.,24.0,0.,24.0,0.,24.0
1989-08-26T19:26:34.930 ,4,1,0.,24.0,0.,24.0,0.,24.0,0.,24.0
1989-08-26T19:26:58.930 ,4,0,0.,24.0,0.,24.0,0.,24.0,0.,24.0
1989-08-26T19:27:22.930 ,3,1,0.,24.0,0.,24.0,0.,24.0,0.,24.0
1989-08-26T19:27:46.930 ,3,0,0.,24.0,0.,24.0,0.,24.0,0.,24.0
1989-08-26T19:28:10.930 ,2,1,0.,24.0,0.,24.0,0.,24.0,0.,24.0
1989-08-26T19:28:34.930 ,2,0,0.,24.0,0.,24.0,0.,24.0,0.,24.0
1989-08-26T19:28:58.930 ,1,1,0.,24.0,0.,24.0,0.,24.0,0.,24.0
1989-08-26T19:29:22.930 ,1,0,0.,24.0,0.,24.0,0.,24.0,0.,24.0
1989-08-26T19:29:46.930 ,0,1,0.,24.0,0.,24.0,0.,24.0,0.,24.0
1989-08-26T19:30:10.930 ,0,0,0.,24.0,0.,24.0,0.,24.0,0.,24.0
1989-08-26T19:30:34.930 ,0,1,0.,24.0,0.,24.0,0.,24.0,0.,24.0
1989-08-26T19:30:58.930 ,0,0,0.,24.0,0.,24.0,0.,24.0,0.,24.0
1989-08-26T19:31:22.930 ,1,1,0.,24.0,0.,24.0,0.,24.0,0.,24.0
1989-08-26T19:31:46.930 ,1,0,0.,24.0,0.,24.0,0.,24.0,0.,24.0
1989-08-26T19:32:10.930 ,2,1,0.,24.0,0.,24.0,0.,24.0,0.,24.0
1989-08-26T19:32:34.930 ,2,0,0.,24.0,0.,24.0,0.,24.0,0.,24.0
1989-08-26T19:32:58.930 ,3,1,1.,24.0,0.,24.0,0.,24.0,0.,24.0
1989-08-26T19:33:22.930 ,3,0,0.,24.0,0.,24.0,0.,24.0,0.,24.0
1989-08-26T19:33:46.930 ,4,1,0.,24.0,0.,24.0,0.,24.0,0.,24.0
1989-08-26T19:34:10.930 ,4,0,0.,24.0,0.,24.0,0.,24.0,0.,24.0
1989-08-26T19:34:34.930 ,5,1,0.,24.0,0.,24.0,0.,24.0,0.,24.0
1989-08-26T19:34:58.930 ,5,0,0.,24.0,0.,24.0,0.,24.0,0.,24.0
1989-08-26T19:35:22.930 ,6,1,0.,24.0,0.,24.0,0.,24.0,0.,24.0
1989-08-26T19:35:46.930 ,6,0,1.,24.0,0.,24.0,0.,24.0,0.,24.0
1989-08-26T19:36:10.930 ,7,1,9.,24.0,0.,24.0,0.,24.0,0.,24.0
1989-08-26T19:36:34.930 ,7,0,34.,24.0,0.,24.0,0.,24.0,0.,24.0
1989-08-26T19:36:58.930 ,7,1,36.,24.0,0.,24.0,0.,24.0,0.,24.0
1989-08-26T19:37:22.930 ,7,0,24.,24.0,0.,24.0,0.,24.0,0.,24.0
1989-08-26T19:37:46.930 ,6,1,20.,24.0,0.,24.0,0.,24.0,0.,24.0
1989-08-26T19:38:10.930 ,6,0,0.,24.0,0.,24.0,0.,24.0,0.,24.0
1989-08-26T19:38:34.930 ,5,1,1.,24.0,0.,24.0,0.,24.0,0.,24.0
1989-08-26T19:38:58.930 ,5,0,0.,24.0,0.,24.0,0.,24.0,0.,24.0
1989-08-26T19:39:22.930 ,4,1,0.,24.0,0.,24.0,0.,24.0,0.,24.0
1989-08-26T19:39:46.930 ,4,0,0.,24.0,0.,24.0,0.,24.0,0.,24.0
1989-08-26T19:40:10.930 ,3,1,0.,24.0,0.,24.0,0.,24.0,0.,24.0
1989-08-26T19:40:34.930 ,3,0,0.,24.0,0.,24.0,0.,24.0,0.,24.0
1989-08-26T19:40:58.930 ,2,1,0.,24.0,0.,24.0,0.,24.0,0.,24.0
1989-08-26T19:41:22.930 ,2,0,0.,24.0,0.,24.0,0.,24.0,0.,24.0
1989-08-26T19:41:46.930 ,1,1,0.,24.0,0.,24.0,0.,24.0,0.,24.0
1989-08-26T19:42:10.930 ,1,0,1.,24.0,0.,24.0,0.,24.0,0.,24.0
1989-08-26T19:42:34.930 ,0,1,0.,24.0,0.,24.0,0.,24.0,0.,24.0
1989-08-26T19:42:58.930 ,0,0,0.,24.0,0.,24.0,0.,24.0,0.,24.0
1989-08-26T19:43:22.930 ,0,1,0.,24.0,0.,24.0,0.,24.0,0.,24.0
1989-08-26T19:43:46.930 ,0,0,0.,24.0,0.,24.0,0.,24.0,0.,24.0
1989-08-26T19:44:10.930 ,1,1,0.,24.0,0.,24.0,0.,24.0,0.,24.0
1989-08-26T19:44:34.930 ,1,0,0.,24.0,0.,24.0,0.,24.0,0.,24.0
1989-08-26T19:44:58.930 ,2,1,0.,24.0,0.,24.0,0.,24.0,0.,24.0
1989-08-26T19:45:22.930 ,2,0,0.,24.0,0.,24.0,0.,24.0,0.,24.0
1989-08-26T19:45:46.930 ,3,1,0.,24.0,0.,24.0,0.,24.0,0.,24.0
1989-08-26T19:46:10.930 ,3,0,0.,24.0,0.,24.0,0.,24.0,0.,24.0
1989-08-26T19:46:34.930 ,4,1,0.,24.0,0.,24.0,0.,24.0,0.,24.0
1989-08-26T19:46:58.930 ,4,0,0.,24.0,0.,24.0,0.,24.0,0.,24.0
1989-08-26T19:47:22.930 ,5,1,0.,24.0,0.,24.0,0.,24.0,0.,24.0
1989-08-26T19:47:46.930 ,5,0,0.,24.0,0.,24.0,0.,24.0,0.,24.0
1989-08-26T19:48:10.930 ,6,1,0.,24.0,0.,24.0,0.,24.0,0.,24.0
1989-08-26T19:48:34.930 ,6,0,0.,24.0,1.,24.0,0.,24.0,0.,24.0
1989-08-26T19:48:58.930 ,7,1,7.,24.0,0.,24.0,0.,24.0,0.,24.0
1989-08-26T19:49:22.930 ,7,0,25.,24.0,0.,24.0,0.,24.0,0.,24.0
1989-08-26T19:49:46.930 ,7,1,32.,24.0,0.,24.0,0.,24.0,0.,24.0
1989-08-26T19:50:10.930 ,7,0,30.,24.0,0.,24.0,0.,24.0,0.,24.0
1989-08-26T19:50:34.930 ,6,1,21.,24.0,0.,24.0,0.,24.0,0.,24.0
1989-08-26T19:50:58.930 ,6,0,0.,24.0,0.,24.0,0.,24.0,0.,24.0
1989-08-26T19:51:22.930 ,5,1,0.,24.0,0.,24.0,0.,24.0,0.,24.0
1989-08-26T19:51:46.930 ,5,0,0.,24.0,0.,24.0,0.,24.0,0.,24.0
1989-08-26T19:52:10.930 ,4,1,0.,24.0,0.,24.0,0.,24.0,0.,24.0
1989-08-26T19:52:34.930 ,4,0,0.,24.0,0.,24.0,0.,24.0,0.,24.0
1989-08-26T19:52:58.930 ,3,1,0.,24.0,0.,24.0,0.,24.0,0.,24.0
1989-08-26T19:53:22.930 ,3,0,0.,24.0,0.,24.0,0.,24.0,0.,24.0
1989-08-26T19:53:46.930 ,0,0,,0,,0,,0,,0
1989-08-26T19:54:10.930 ,0,0,,0,,0,,0,,0
1989-08-26T19:53:52.930 ,2,1,0.,24.0,1.,24.0,0.,24.0,0.,24.0
1989-08-26T19:54:10.930 ,2,0,0.,24.0,0.,24.0,0.,24.0,0.,24.0
1989-08-26T19:54:34.930 ,1,1,0.,24.0,0.,24.0,0.,24.0,0.,24.0
1989-08-26T19:54:58.930 ,1,0,0.,24.0,0.,24.0,0.,24.0,0.,24.0
1989-08-26T19:55:22.930 ,0,1,0.,24.0,0.,24.0,0.,24.0,0.,24.0
1989-08-26T19:55:46.930 ,0,0,0.,24.0,0.,24.0,0.,24.0,0.,24.0
1989-08-26T19:56:10.930 ,0,1,0.,24.0,0.,24.0,0.,24.0,0.,24.0
1989-08-26T19:56:34.930 ,0,0,0.,24.0,0.,24.0,0.,24.0,0.,24.0
1989-08-26T19:56:58.930 ,1,1,0.,24.0,0.,24.0,0.,24.0,0.,24.0
1989-08-26T19:57:22.930 ,1,0,0.,24.0,0.,24.0,0.,24.0,0.,24.0
1989-08-26T19:57:46.930 ,2,1,0.,24.0,0.,24.0,0.,24.0,0.,24.0
1989-08-26T19:58:10.930 ,2,0,0.,24.0,0.,24.0,0.,24.0,0.,24.0
1989-08-26T19:58:34.930 ,3,1,0.,24.0,0.,24.0,0.,24.0,0.,24.0
1989-08-26T19:58:58.930 ,3,0,0.,24.0,0.,24.0,0.,24.0,0.,24.0
1989-08-26T19:59:22.930 ,4,1,0.,24.0,0.,24.0,0.,24.0,0.,24.0
1989-08-26T19:59:46.930 ,4,0,0.,24.0,0.,24.0,0.,24.0,0.,24.0
1989-08-26T20:00:10.930 ,5,1,0.,24.0,0.,24.0,0.,24.0,0.,24.0
1989-08-26T20:00:34.930 ,5,0,0.,24.0,0.,24.0,0.,24.0,0.,24.0
1989-08-26T20:00:58.930 ,6,1,1.,24.0,0.,24.0,0.,24.0,0.,24.0
1989-08-26T20:01:22.930 ,6,0,0.,24.0,0.,24.0,0.,24.0,0.,24.0
1989-08-26T20:01:46.930 ,7,1,9.,24.0,0.,24.0,0.,24.0,0.,24.0
1989-08-26T20:02:10.930 ,7,0,28.,24.0,0.,24.0,0.,24.0,0.,24.0
1989-08-26T20:02:34.930 ,7,1,21.,24.0,0.,24.0,0.,24.0,0.,24.0
1989-08-26T20:02:58.930 ,7,0,24.,24.0,0.,24.0,0.,24.0,0.,24.0
1989-08-26T20:03:22.930 ,6,1,28.,24.0,0.,24.0,0.,24.0,0.,24.0
1989-08-26T20:03:46.930 ,6,0,0.,24.0,0.,24.0,0.,24.0,0.,24.0
1989-08-26T20:04:10.930 ,5,1,0.,24.0,0.,24.0,0.,24.0,0.,24.0
1989-08-26T20:04:34.930 ,5,0,0.,24.0,0.,24.0,0.,24.0,0.,24.0
1989-08-26T20:04:58.930 ,4,1,0.,24.0,0.,24.0,0.,24.0,0.,24.0
1989-08-26T20:05:22.930 ,4,0,0.,24.0,0.,24.0,0.,24.0,0.,24.0
1989-08-26T20:05:46.930 ,3,1,0.,24.0,0.,24.0,0.,24.0,0.,24.0
1989-08-26T20:06:10.920 ,3,0,0.,24.0,0.,24.0,0.,24.0,0.,24.0
1989-08-26T20:06:34.920 ,2,1,0.,24.0,0.,24.0,0.,24.0,0.,24.0
1989-08-26T20:06:58.920 ,2,0,0.,24.0,0.,24.0,0.,24.0,0.,24.0
1989-08-26T20:07:22.920 ,1,1,0.,24.0,0.,24.0,0.,24.0,0.,24.0
1989-08-26T20:07:46.920 ,1,0,0.,24.0,0.,24.0,0.,24.0,0.,24.0
1989-08-26T20:08:10.920 ,0,1,0.,24.0,0.,24.0,0.,24.0,0.,24.0
1989-08-26T20:08:34.920 ,0,0,0.,24.0,0.,24.0,0.,24.0,0.,24.0
1989-08-26T20:08:58.920 ,0,1,0.,24.0,0.,24.0,0.,24.0,0.,24.0
1989-08-26T20:09:22.920 ,0,0,0.,24.0,0.,24.0,0.,24.0,0.,24.0
1989-08-26T20:09:46.920 ,1,1,0.,24.0,0.,24.0,0.,24.0,0.,24.0
1989-08-26T20:10:10.920 ,1,0,0.,24.0,0.,24.0,0.,24.0,0.,24.0
1989-08-26T20:10:34.920 ,2,1,0.,24.0,0.,24.0,0.,24.0,0.,24.0
1989-08-26T20:10:58.920 ,2,0,0.,24.0,0.,24.0,0.,24.0,0.,24.0
1989-08-26T20:11:22.920 ,3,1,0.,24.0,0.,24.0,0.,24.0,0.,24.0
1989-08-26T20:11:46.920 ,3,0,0.,24.0,0.,24.0,0.,24.0,0.,24.0
1989-08-26T20:12:10.920 ,4,1,0.,24.0,0.,24.0,0.,24.0,0.,24.0
1989-08-26T20:12:34.920 ,4,0,0.,24.0,0.,24.0,0.,24.0,0.,24.0
1989-08-26T20:12:58.920 ,5,1,0.,24.0,0.,24.0,0.,24.0,0.,24.0
1989-08-26T20:13:22.920 ,5,0,0.,24.0,0.,24.0,0.,24.0,0.,24.0
1989-08-26T20:13:46.920 ,6,1,0.,24.0,0.,24.0,0.,24.0,0.,24.0
1989-08-26T20:14:10.920 ,6,0,0.,24.0,0.,24.0,0.,24.0,0.,24.0
1989-08-26T20:14:34.920 ,7,1,11.,24.0,0.,24.0,0.,24.0,0.,24.0
1989-08-26T20:14:58.920 ,7,0,26.,24.0,0.,24.0,0.,24.0,0.,24.0
1989-08-26T20:15:22.920 ,7,1,36.,24.0,0.,24.0,0.,24.0,0.,24.0
1989-08-26T20:15:46.920 ,7,0,31.,24.0,0.,24.0,0.,24.0,0.,24.0
1989-08-26T20:16:10.920 ,6,1,20.,24.0,0.,24.0,0.,24.0,0.,24.0
1989-08-26T20:16:34.920 ,6,0,0.,24.0,0.,24.0,0.,24.0,0.,24.0
1989-08-26T20:16:58.920 ,5,1,0.,24.0,0.,24.0,0.,24.0,0.,24.0
1989-08-26T20:17:22.920 ,5,0,0.,24.0,0.,24.0,0.,24.0,0.,24.0
1989-08-26T20:17:46.920 ,4,1,0.,24.0,0.,24.0,0.,24.0,0.,24.0
1989-08-26T20:18:10.920 ,4,0,0.,24.0,0.,24.0,0.,24.0,0.,24.0
1989-08-26T20:18:34.920 ,3,1,0.,24.0,0.,24.0,0.,24.0,0.,24.0
1989-08-26T20:18:58.920 ,3,0,0.,24.0,0.,24.0,0.,24.0,0.,24.0
1989-08-26T20:19:22.920 ,2,1,0.,24.0,0.,24.0,0.,24.0,0.,24.0
1989-08-26T20:19:46.920 ,2,0,0.,24.0,0.,24.0,0.,24.0,0.,24.0
1989-08-26T20:20:10.920 ,1,1,0.,24.0,0.,24.0,0.,24.0,0.,24.0
1989-08-26T20:20:34.920 ,1,0,0.,24.0,0.,24.0,0.,24.0,0.,24.0
1989-08-26T20:20:58.920 ,0,1,0.,24.0,0.,24.0,0.,24.0,0.,24.0
1989-08-26T20:21:22.920 ,0,0,0.,24.0,0.,24.0,0.,24.0,0.,24.0
1989-08-26T20:21:46.920 ,0,1,0.,24.0,0.,24.0,0.,24.0,0.,24.0
1989-08-26T20:22:10.920 ,0,0,0.,24.0,0.,24.0,0.,24.0,0.,24.0
1989-08-26T20:22:34.920 ,1,1,0.,24.0,0.,24.0,0.,24.0,0.,24.0
1989-08-26T20:22:58.920 ,1,0,0.,24.0,0.,24.0,0.,24.0,0.,24.0
1989-08-26T20:23:22.920 ,2,1,0.,24.0,0.,24.0,0.,24.0,0.,24.0
1989-08-26T20:23:46.920 ,2,0,0.,24.0,0.,24.0,0.,24.0,0.,24.0
1989-08-26T20:24:10.920 ,3,1,0.,24.0,0.,24.0,0.,24.0,0.,24.0
1989-08-26T20:24:34.920 ,3,0,0.,24.0,0.,24.0,0.,24.0,0.,24.0
1989-08-26T20:24:58.920 ,4,1,0.,24.0,0.,24.0,0.,24.0,0.,24.0
1989-08-26T20:25:22.920 ,4,0,1.,24.0,0.,24.0,0.,24.0,0.,24.0
1989-08-26T20:25:46.920 ,5,1,0.,24.0,0.,24.0,0.,24.0,0.,24.0
1989-08-26T20:26:10.920 ,5,0,0.,24.0,0.,24.0,0.,24.0,0.,24.0
1989-08-26T20:26:34.920 ,6,1,0.,24.0,0.,24.0,0.,24.0,0.,24.0
1989-08-26T20:26:58.920 ,6,0,0.,24.0,0.,24.0,0.,24.0,0.,24.0
1989-08-26T20:27:22.920 ,7,1,8.,24.0,0.,24.0,0.,24.0,0.,24.0
1989-08-26T20:27:46.920 ,7,0,23.,24.0,0.,24.0,0.,24.0,0.,24.0
1989-08-26T20:28:10.920 ,7,1,32.,24.0,0.,24.0,0.,24.0,0.,24.0
1989-08-26T20:28:34.920 ,7,0,30.,24.0,0.,24.0,0.,24.0,0.,24.0
1989-08-26T20:28:58.920 ,6,1,21.,24.0,0.,24.0,0.,24.0,0.,24.0
1989-08-26T20:29:22.920 ,6,0,0.,24.0,0.,24.0,0.,24.0,0.,24.0
1989-08-26T20:29:46.920 ,5,1,0.,24.0,0.,24.0,0.,24.0,0.,24.0
1989-08-26T20:30:10.920 ,5,0,0.,24.0,0.,24.0,0.,24.0,0.,24.0
1989-08-26T20:30:34.920 ,4,1,0.,24.0,0.,24.0,0.,24.0,0.,24.0
1989-08-26T20:30:58.920 ,4,0,0.,24.0,0.,24.0,0.,24.0,0.,24.0
1989-08-26T20:31:22.920 ,3,1,0.,24.0,0.,24.0,0.,24.0,0.,24.0
1989-08-26T20:31:46.920 ,3,0,0.,24.0,0.,24.0,0.,24.0,0.,24.0
1989-08-26T20:32:10.920 ,2,1,1.,24.0,0.,24.0,0.,24.0,0.,24.0
1989-08-26T20:32:34.920 ,2,0,0.,24.0,0.,24.0,0.,24.0,0.,24.0
1989-08-26T20:32:58.920 ,1,1,0.,24.0,0.,24.0,0.,24.0,0.,24.0
1989-08-26T20:33:22.920 ,1,0,0.,24.0,1.,24.0,0.,24.0,0.,24.0
1989-08-26T20:33:46.920 ,0,1,0.,24.0,0.,24.0,0.,24.0,0.,24.0
1989-08-26T20:34:10.920 ,0,0,0.,24.0,0.,24.0,0.,24.0,0.,24.0